Location: Invercargill
(46.4000°S, 168.3500°E)
Time: 18:00:34
(UTC+13:00)

Cosmos 2322 - Pass Details

Date: 02 October 2021
Orbit: 840 x 855 km, 71.0° (Epoch: 17 October)

Event Time Altitude Azimuth Distance (km) Brightness Sun altitude
Rises 00:28:40 0° 215° (SW) 3,435 7.8 -38.0°
Reaches altitude 10° 00:31:21 10° 224° (SW) 2,494 6.8 -38.2°
Enters shadow 00:33:43 22° 242° (WSW) 1,799 5.7 -38.3°
